Location: Holbach
(51.5399°N, 10.6036°E)
Time: 22:37:47
(UTC+00:00)

Cosmos 1092 Rocket - Pass Details

Date: 27 June 2021
Orbit: 955 x 994 km, 82.9° (Epoch: 28 July)

Event Time Altitude Azimuth Distance (km) Brightness Sun altitude
Exits shadow 23:17:38 16° 146° (SE) 2,277 5.4 -15.2°
Maximum altitude 23:21:56 37° 87° (E) 1,450 4.9 -15.2°
Drops below altitude 10° 23:27:31 10° 23° (NNE) 2,711 7.5 -15.2°
Sets 23:30:12 0° 15° (NNE) 3,667 8.7 -15.2°
